Home   Weather   Kanab   Past weeks
Flag for USA

Past Weather in Kanab, Utah, USA — Yesterday and Last 2 Weeks

Now
63 °F

Sunny.


Feels Like: 63 °F
Forecast: 67 / 40 °F
Wind: No wind

Location: Colorado City Municipal Airport

Current Time: Oct 18, 2019 at 1:13:39 pm

Latest Report: Oct 18, 2019 at 12:35 pm


Visibility: 10 mi

Pressure: 30.02 "Hg (25.11 "Hg at 1515m altitude)

Humidity: 20%

Dew Point: 21 °F

Location of KanabLocation

Past Weather in Kanab — Graph

°F

Kanab Temperature Yesterday

Maximum temperature yesterday: 79 °F (at 1:15 pm)
Minimum temperature yesterday: 41 °F (at 5:15 am)
Average temperature yesterday: 59 °F

High & Low Weather Summary for the Past Weeks

 TemperatureHumidityPressure
High84 °F (Oct 8, 3:15 pm)75% (Oct 4, 6:55 am)30.37 "Hg (Oct 4, 6:55 am)
Low28 °F (Oct 13, 5:35 am)7% (Oct 5, 4:15 pm)29.73 "Hg (Oct 17, 5:15 pm)
Average56 °F24%30.11 "Hg
* Reported Oct 3 11:15 am — Oct 18 11:55 am, Kanab. Weather by CustomWeather, © 2019

Note: Actual official high and low records may vary slightly from our data, if they occured in-between our weather recording intervals... More about our weather records

Advertising

Kanab Weather History for the Previous 24 Hours

Scroll right to see more
 ConditionsComfort  
Time TempWeatherWind HumidityBarometerVisibility
11:55 am
Fri, Oct 18
61 °FSunny.8 mph27%30.02 "Hg10 mi
11:35 am61 °FSunny.7 mph23%30.02 "Hg10 mi
10:55 am59 °FSunny.6 mph27%30.02 "Hg10 mi
10:35 am59 °FSunny.6 mph29%30.02 "Hg10 mi
9:55 am55 °FSunny.8 mph38%30.00 "Hg10 mi
9:35 am54 °FSunny.12 mph44%30.00 "Hg10 mi
8:55 am50 °FSunny.8 mph50%29.96 "Hg10 mi
8:35 am48 °FSunny.8 mph54%29.94 "Hg10 mi
8:15 am45 °FSunny.6 mph61%29.94 "Hg10 mi
7:55 am45 °FSunny.5 mph61%29.93 "Hg10 mi
7:35 am46 °FClear.9 mph62%29.93 "Hg10 mi
6:55 am48 °FPassing clouds.12 mph58%29.91 "Hg10 mi
6:35 am50 °FPassing clouds.9 mph54%29.90 "Hg10 mi
5:55 am52 °FClear.No wind47%29.87 "Hg10 mi
5:35 am54 °FPassing clouds.10 mph44%29.86 "Hg10 mi
5:15 am54 °FPassing clouds.No wind47%29.86 "Hg10 mi
4:55 am52 °FPassing clouds.3 mph50%29.86 "Hg10 mi
4:35 am52 °FPassing clouds.9 mph54%29.85 "Hg10 mi
4:15 am52 °FClear.18 mph54%29.84 "Hg10 mi
3:55 am52 °FClear.21 mph58%29.84 "Hg10 mi
3:35 am52 °FClear.18 mph54%29.83 "Hg10 mi
3:15 am54 °FClear.15 mph51%29.82 "Hg10 mi
2:35 am46 °FClear.8 mph53%29.82 "Hg10 mi
1:55 am48 °FPassing clouds.No wind46%29.79 "Hg10 mi
1:35 am48 °FPassing clouds.No wind50%29.79 "Hg10 mi
12:55 am45 °FClear.No wind53%29.78 "Hg10 mi
12:35 am50 °FClear.3 mph47%29.78 "Hg10 mi
12:15 am45 °FClear.3 mph53%29.79 "Hg10 mi
11:55 pm
Thu, Oct 17
45 °FClear.No wind53%29.78 "Hg10 mi
11:35 pm45 °FClear.5 mph53%29.78 "Hg10 mi
11:15 pm48 °FClear.No wind54%29.77 "Hg10 mi
10:55 pm50 °FClear.No wind50%29.77 "Hg10 mi
10:35 pm54 °FPassing clouds.No wind41%29.76 "Hg10 mi
10:15 pm50 °FPassing clouds.No wind40%29.76 "Hg10 mi
9:35 pm59 °FPassing clouds.No wind34%29.76 "Hg10 mi
9:15 pm61 °FClear.7 mph31%29.76 "Hg10 mi
8:55 pm61 °FClear.5 mph31%29.75 "Hg10 mi
8:35 pm61 °FClear.6 mph31%29.75 "Hg10 mi
8:15 pm63 °FPassing clouds.7 mph30%29.75 "Hg10 mi
7:55 pm63 °FClear.8 mph27%29.75 "Hg10 mi
7:35 pm68 °FClear.8 mph23%29.74 "Hg10 mi
7:15 pm70 °FClear.10 mph21%29.73 "Hg10 mi
6:55 pm72 °FClear.15 mph20%29.73 "Hg10 mi
6:35 pm73 °FSunny.14 mph17%29.73 "Hg10 mi
5:55 pm77 °FSunny.17 mph14%29.73 "Hg10 mi
5:35 pm77 °FSunny.25 mph14%29.73 "Hg10 mi
5:15 pm79 °FSunny.20 mph12%29.73 "Hg10 mi
4:55 pm79 °FSunny.24 mph12%29.74 "Hg10 mi
4:35 pm79 °FSunny.20 mph15%29.75 "Hg10 mi
4:15 pm77 °FSunny.16 mph17%29.77 "Hg10 mi
3:55 pm77 °FSunny.16 mph15%29.78 "Hg10 mi
3:35 pm77 °FSunny.18 mph15%29.79 "Hg10 mi
3:15 pm77 °FSunny.13 mph15%29.79 "Hg10 mi
2:35 pm79 °FSunny.16 mph16%29.82 "Hg10 mi
2:15 pm77 °FSunny.13 mph17%29.84 "Hg10 mi
1:50 pm77 °FSunny.14 mph17%29.85 "Hg10 mi
1:35 pm79 °FSunny.14 mph16%29.86 "Hg10 mi
1:15 pm79 °FSunny.14 mph16%29.88 "Hg10 mi
Weather by CustomWeather, © 2019

See weather overview